Other Public Products
Issued by NWS Grand Forks, ND

Home | Current Version | Previous Version | Text Only | Print | Product List | Glossary Off
Versions: 1 2 3 4 5 6 7 8 9 10 11 12 13 14 15 16 17 18 19 20 21 22 23 24 25 26 27 28 29 30 31 32 33 34 35 36 37 38 39 40 41 42 43 44 45 46 47 48 49 50

000
FPUS83 KFGF 220231
OPUFGF
PRAIRIE TO PINES WEATHER ROUNDUP
NATIONAL WEATHER SERVICE EASTERN NORTH DAKOTA/GRAND FORKS ND
800 PM CST SUN JAN 21 2018

 **SATELLITE DATA USED TO AUGMENT SKY COVER AT AUTOMATED STATIONS**
 *****  WEATHER ACROSS EASTERN NORTH DAKOTA  *****

CITY           SKY/WX    TMP DP  RH WIND       PRES   REMARKS
GRAND FORKS    CLOUDY    24  21  88 N7        30.12R WCI  16
GRND FORKS AFB CLOUDY    23  21  90 NE6       30.11R WCI  16
GRND FORKS NWS NOT AVBL
BUXTON           N/A     24  23  99 CALM        N/A
DEVILS LAKE    CLOUDY    23  21  93 S5        30.09S FOG     WCI  17
FARGO          CLOUDY    26  23  88 N13       30.09R WCI  15
WAHPETON ARPT  CLOUDY    27  23  86 N14       30.07R WCI  15
$$

 *****  WEATHER ACROSS CENTRAL AND WESTERN NORTH DAKOTA  *****

CITY           SKY/WX    TMP DP  RH WIND       PRES   REMARKS
JAMESTOWN      CLOUDY    26  24  92 NE6       30.07R WCI  19
BISMARCK       FAIR      20  17  88 NE3       30.06R
MINOT          FAIR      20  16  84 S5        30.01S WCI  13
MINOT AFB      FAIR      18  14  87 SW7       30.00R WCI   8
GARRISON         N/A     18  17  96 CALM      30.01S
WILLISTON      FAIR      14  11  87 W3        30.01S
DICKINSON      FAIR      21  17  84 W9        29.99S WCI  11
HETTINGER      FAIR      22  19  89 W6        30.03R WCI  14
$$

 *****  OTHER OBSERVATIONS NORTHEAST NORTH DAKOTA  *****

CITY           SKY/WX    TMP DP  RH WIND       PRES   REMARKS
WALHALLA       FAIR      21  21 100 CALM      30.12S
LANGDON        NOT AVBL
CAVALIER         N/A     21  21 100 CALM      30.12S
GRAFTON        NOT AVBL
CANDO          FOG       21  21 100 SE8       30.10S VSB 1/2 WCI  12
FORT TOTTEN      N/A     22  21  96 CALM      29.95
ROLLA          FOG       21  21 100 S13       30.04S VSB 1/4 WCI   9
RUGBY          NOT AVBL
 ***** THE ABOVE OBSERVATIONS ARE NON NWS ARE NOT QUALITY
        CONTROLLED AND MAY MIS-REPORT RAIN FOR SNOW...
$$

 *****  OTHER OBSERVATIONS SOUTHEAST NORTH DAKOTA *****

CITY           SKY/WX    TMP DP  RH WIND       PRES   REMARKS
COOPERSTOWN    CLOUDY    23  23 100 CALM      30.09S
VALLEY CITY    NOT AVBL
OAKES            N/A     23  23 100 N6        30.07S WCI  16
GWINNER          N/A     25  23  93 NE13      30.07S WCI  13
SHEYENNE NWR     N/A     25  25 100 NE8       29.95S WCI  16
BUFFALO          N/A    N/A N/A N/A SW5         N/A
WYNDMERE       NOT AVBL
 ***** THE ABOVE OBSERVATIONS ARE NON NWS ARE NOT QUALITY
       CONTROLLED AND MAY MIS-REPORT RAIN FOR SNOW...
$$

  *****  WEATHER ACROSS NORTHERN MINNESOTA  *****

CITY           SKY/WX    TMP DP  RH WIND       PRES   REMARKS
FLAG ISLAND    CLOUDY    25  21  86 N3        30.10S
WARROAD        CLOUDY    25  21  86 N3        30.11S
ROSEAU         CLOUDY    25  21  86 N3        30.11S
HALLOCK        CLOUDY    23  19  86 N6        30.12S WCI  16
THF RVR FALLS  CLOUDY    23  22  96 NE6       30.11R WCI  16
HALSTAD        NOT AVBL
FOSSTON        CLOUDY    21  21 100 N5        30.09R FOG     WCI  15
BAUDETTE       CLOUDY    25  23  92 N6        30.08S WCI  18
WASKISH        CLOUDY    25  25 100 CALM      30.08S
CROOKSTON      FAIR      25  23  93 CALM      30.12S
$$
  *****  WEATHER ACROSS CENTRAL AND WEST MINNESOTA  *****

CITY           SKY/WX    TMP DP  RH WIND       PRES   REMARKS
BEMIDJI        CLOUDY    24  23  97 N5        30.06S FOG     WCI  18
PARK RAPIDS    CLOUDY    26  22  84 N10       30.03R WCI  16
WADENA         FAIR      25  21  86 N8        30.02S WCI  16
DETROIT LAKES  CLOUDY    27  25  93 CALM      30.05S
MOORHEAD       CLOUDY    25  21  86 N8        30.10R WCI  16
FERGUS FALLS   CLOUDY    27  25  93 N6        30.04R WCI  20
ELBOW LAKE     FAIR      28  26  93 N7        30.03S WCI  20
MORRIS MN      CLOUDY    30  28  93 N10       30.00S WCI  21
STAPLES        FAIR      25  21  86 N3        30.03R
WHEATON        MOCLDY    27  23  86 N12       30.06F WCI  16
$$
  *****  WEATHER ELSEWHERE ACROSS MINNESOTA  *****

CITY           SKY/WX    TMP DP  RH WIND       PRES   REMARKS
DULUTH         FOG       30  29  96 E12       30.03R VSB 1/4 WCI  20
INTRNTL FALLS  CLOUDY    27  25  92 NE8       30.08R FOG     WCI  19
ELY            CLOUDY    27  27 100 CALM      30.06R FOG
CLOQUET        MIX PCPN  28  28 100 E7        30.03R VSB 1/4 WCI  21
BRAINERD       MOCLDY    29  23  78 N9        30.02R WCI  20
HIBBING        CLOUDY    26  24  92 NE6       30.04R WCI  19
ALEXANDRIA     MOCLDY    30  26  85 NE8       30.00R WCI  22
SAINT CLOUD    CLOUDY    33  28  81 N7        29.99R
MINNEAPOLIS    CLOUDY    36  30  79 N10       29.96R
$$

  *****  WEATHER ACROSS SOUTH DAKOTA  *****

CITY           SKY/WX    TMP DP  RH WIND       PRES   REMARKS
SIOUX FALLS    CLOUDY    35  29  78 NE20      29.89S WCI  24
BROOKINGS      CLOUDY    32  26  78 MISG        N/A
WATERTOWN      CLOUDY    29  26  89 N12       29.97R WCI  19
HURON          CLOUDY    30  28  92 N18       29.97S WCI  18
SISSETON         N/A     27  24  89 N14       30.04R WCI  16
ABERDEEN       FAIR      27  25  92 N10       30.05R WCI  17
MITCHELL       CLOUDY    33  31  92 N14       29.95R WCI  23
PIERRE         CLOUDY    30  27  88 N10       30.01S WCI  21
MOBRIDGE       FAIR      25  22  88 N5        30.00F WCI  19
RAPID CITY     MOCLDY    31  24  75 N13       30.01R WCI  21
$$

  *****  SOME WEATHER IN NEARBY STATES *****

CITY           SKY/WX    TMP DP  RH WIND       PRES   REMARKS
GLASGOW MT     FAIR      13  10  88 CALM      30.00F
GREAT FALLS MT FAIR      32  14  47 SW21G33   29.94F WCI  20
CHEYENNE WY    LGT SNOW  19  17  92 N18G28    29.92S FOG     WCI   4
SCOTTSBLUFF NE CLOUDY    27  24  89 NW20      29.96F WCI  13
OMAHA NE       CLOUDY    37  36  96 N14       29.69F FOG
DES MOINES IA  FOG       40  39  97 NE10      29.73F VSB 1/8
DAVENPORT IA   FOG       42  40  92 E9        29.81F VSB 1/4
CHICAGO IL     DRZL/FOG  41  40  96 NE6       29.88F VSB 1/8
EAU CLAIRE WI  CLOUDY    36  30  79 NE7       29.95R
LA CROSSE WI   CLOUDY    36  32  85 CALM      29.91R FOG
$$

  *****  SOME NATIONAL WEATHER *****

CITY           SKY/WX    TMP DP  RH WIND       PRES   REMARKS
LA GUARDIA NY  CLOUDY    48  32  53 S8        30.17F
RALEIGH NC     FAIR      49  42  77 CALM      30.21F
ATLANTA GA     FAIR      57  43  59 SE5       30.17S
NEW ORLEANS LA FAIR      63  60  90 SE8       30.07R
OKLAHOMA CITY  CLOUDY    59  10  14 W17G28    29.69R
ALBUQUERQUE NM MOCLDY    34  16  47 N9        30.02R
SALT LAKE CITY FAIR      30  21  69 SW3       30.27R
LOS ANGELES CA FAIR      57  37  47 W8        30.28R
BOISE ID       CLOUDY    39  24  55 SE9       30.18R
SEATTLE WA     MOCLDY    42  39  89 S14       29.94R
$$

*** WEATHER ACROSS MANITOBA...SASKATCHEWAN AND ONTARIO ***
                ***ONTARIO***

CITY           SKY/WX    TMP DP  RH WIND       PRES   REMARKS
GERALDTON      FLURRIES   3  -2  78 NE9G17    30.22S WCI -11
THUNDER BAY    CLOUDY    16  14  93 N7        30.17R WCI   6
SIOUX LOOKOUT  FRZ DRZL  10   7  85 E7        30.15S WCI   0
TORONTO        DRZL/FOG  36  34  93 E3        30.06S VSB 5/8
BIG TROUT LK   CLEAR    -20 -26  76 N2        30.37S HAZE
PICKLE LAKE    FLURRIES   1  -4  78 E8        30.24R WCI -12
DRYDEN         CLOUDY    12  10  92 NE7       30.12R WCI   2
KENORA         CLOUDY    18  16  93 NE7       30.10S WCI   8
$$
                *** MANITOBA***

CITY           SKY/WX    TMP DP  RH WIND       PRES   REMARKS
BRANDON        CLOUDY    21  18  86 E8        30.06S WCI  12
DAUPHIN        CLOUDY    16  14  93 E7        30.10S WCI   6
ISLAND LAKE    LGT SNOW  -2  -8  78 E10       30.29  DRFTSNOWWCI -19
PILOT MOUND      N/A     21  19  93 S6          N/A  WCI  14
THE PAS        FLURRIES   3  -2  78 E8        30.17S WCI -10
THOMPSON       FLURRIES  -8 -13  77 E5        30.29S WCI -19
WINNIPEG       CLOUDY    18  14  86 NE2       30.14R
LYNN LAKE      FLURRIES -15 -18  84 E6        30.22S WCI -29
CHURCHILL      CLEAR    -22 -27  76 W5        30.51F WCI -36
$$
                ***SASKATCHEWAN***

CITY           SKY/WX    TMP DP  RH WIND       PRES   REMARKS
ESTEVAN        CLEAR     14  12  92 SW6       29.99R WCI   5
KINDERSLEY     PTCLDY    21  18  86 SE14      29.84F WCI   8
LLOYDMINSTER   CLOUDY    21  21 100 SE17G24   29.83F FOG     WCI   7
PRINCE ALBERT  CLOUDY    16  10  79 E12       30.05R WCI   3
REGINA         CLEAR     16  14  93 SE6       29.97R WCI   7
YORKTON        FOG       21  21 100 SE9       30.00S VSB 1   WCI  11
N. BATTLEFORD  CLOUDY    23  21  93 SE14G21   29.95S WC



USA.gov is the U.S. government's official web portal to all federal, state and local government web resources and services.